QPF
0.00 0.00 0.00 0.00 0.00 0.00 0.00 0.00 0.00 0.00 0.00 0.00 0.00 0.00 0.00 0.00 0.00 0.00 0.00 0.00 0.00 0.00 0.00 0.00 0.00 0.00 0.00 0.00 0.00 0.00 0.00 0.00 0.00 0.00 0.00 0.00 0.00 0.00 0.00 0.00 0.00 0.00 0.00 0.00
0.00 0.00 0.00 0.00 0.00 0.00 0.00 0.00 0.00 0.00 0.00 0.00 0.00 0.00 0.00 0.00 0.00 0.00 0.00 0.00 0.00 0.00 0.00 0.00 0.00 0.00 0.00 0.00 0.00 0.00 0.00 0.00 0.00 0.00 0.00 0.00 0.00 0.00 0.00 0.00 0.00 0.00 0.00 0.00
0.00 0.00 0.00 0.00 0.00 0.00 0.00 0.00 0.00 0.00 0.00 0.00 0.00 0.00 0.00 0.00 0.00 0.00 0.00 0.00 0.00 0.00 0.00 0.00 0.00 0.00 0.00 0.00 0.00 0.00 0.00 0.00 0.00 0.00 0.00 0.00 0.00 0.00 0.00 0.00 0.00 0.00 0.00 0.00
0.00 0.00 0.00 0.00 0.00 0.00 0.00 0.00 0.00 0.00 0.00 0.00 0.00 0.00 0.00 0.00 0.00 0.00 0.00 0.00 0.00 0.00 0.00 0.00 0.00 0.00 0.00 0.00 0.00 0.00 0.00 0.00 0.00 0.00 0.00 0.00 0.00 0.00 0.00 0.00 0.00 0.00 0.00 0.00
0.00 0.00 0.00 0.00 0.00 0.00 0.00 0.00 0.00 0.00 0.00 0.00 0.00 0.00 0.00 0.00 0.00 0.00 0.00 0.00 0.00 0.00 0.00 0.00 0.00 0.00 0.00 0.00 0.00 0.00 0.00 0.00 0.00 0.00 0.00 0.00 0.00 0.00 0.00 0.00 0.00 0.00 0.00 0.00
0.00 0.00 0.00 0.00 0.00 0.00 0.00 0.00 0.00 0.00 0.00 0.00 0.00 0.00 0.00 0.00 0.00 0.00 0.00 0.00 0.00 0.00 0.00 0.00 0.00 0.00 0.00 0.00 0.00 0.00 0.00 0.00 0.00 0.00 0.00 0.00 0.00 0.00 0.00 0.00 0.00 0.00 0.00 0.00
0.00 0.00 0.00 0.00 0.00 0.00 0.00 0.00 0.00 0.00 0.00 0.00 0.00 0.00 0.00 0.00 0.00 0.00 0.00 0.00 0.00 0.00 0.00 0.00 0.00 0.00 0.00 0.00 0.00 0.00 0.00 0.00 0.00 0.00 0.00 0.00 0.00 0.00 0.00 0.00 0.00 0.00 0.00 0.00
0.00 0.00 0.00 0.00 0.00 0.00 0.00 0.00 0.00 0.00 0.00 0.00 0.00 0.00 0.00 0.00 0.00 0.00 0.00 0.00 0.00 0.00 0.00 0.00 0.00 0.00 0.00 0.00 0.00 0.00 0.00 0.00 0.00 0.00 0.00 0.00 0.00 0.00 0.00 0.00 0.00 0.00 0.00 0.00
0.00 0.00 0.00 0.00 0.00 0.00 0.00 0.00 0.00 0.00 0.00 0.00 0.00 0.00 0.00 0.00 0.00 0.00 0.00 0.00 0.00 0.00 0.00 0.00 0.00 0.00 0.00 0.00 0.00 0.00 0.00 0.00 0.00 0.00 0.00 0.00 0.00 0.00 0.00 0.00 0.00 0.00 0.00 0.00
0.00 0.00 0.00 0.00 0.00 0.00 0.00 0.00 0.00 0.00 0.00 0.00 0.00 0.00 0.00 0.00 0.00 0.00 0.00 0.00 0.00 0.00 0.00 0.00 0.00 0.00 0.00 0.00 0.00 0.00 0.00 0.00 0.00 0.00 0.00 0.00 0.00 0.00 0.00 0.00 0.00 0.00 0.00 0.00
0.00 0.00 0.00 0.00 0.00 0.00 0.00 0.00 0.00 0.00 0.00 0.00 0.00 0.00 0.00 0.00 0.00 0.00 0.00 0.00 0.00 0.00 0.00 0.00 0.00 0.00 0.00 0.00 0.00 0.00 0.00 0.00 0.00 0.00 0.00 0.00 0.00 0.00 0.00 0.00 0.00 0.00 0.00 0.00
0.00 0.00 0.00 0.00 0.00 0.00 0.00 0.00 0.00 0.00 0.00 0.00 0.00 0.00 0.00 0.00 0.00 0.00 0.00 0.00 0.00 0.00 0.00 0.00 0.00 0.00 0.00 0.00 0.00 0.00 0.00 0.00 0.00 0.00 0.00 0.00 0.00 0.00 0.00 0.00 0.00 0.00 0.00 0.00
0.00 0.00 0.00 0.00 0.00 0.00 0.00 0.00 0.00 0.00 0.00 0.00 0.00 0.00 0.00 0.00 0.00 0.00 0.00 0.00 0.00 0.00 0.00 0.00 0.00 0.00 0.00 0.00 0.00 0.00 0.00 0.00 0.00 0.00 0.00 0.00 0.00 0.00 0.00 0.00 0.00 0.00 0.00 0.00
0.00 0.00 0.00 0.00 0.00 0.00 0.00 0.00 0.00 0.00 0.00 0.00 0.00 0.00 0.00 0.00 0.00 0.00 0.00 0.00 0.00 0.00 0.00 0.00 0.00 0.00 0.00 0.00 0.00 0.00 0.00 0.00 0.00 0.00 0.00 0.00 0.00 0.00 0.00 0.00 0.00 0.00 0.00 0.00
0.00 0.00 0.00 0.00 0.00 0.00 0.00 0.00 0.00 0.00 0.00 0.00 0.00 0.00 0.00 0.00 0.00 0.00 0.00 0.00 0.00 0.00 0.00 0.00 0.00 0.00 0.00 0.00 0.00 0.00 0.00 0.00 0.00 0.00 0.00 0.00 0.00 0.00 0.00 0.00 0.00 0.00 0.00 0.00
0.00 0.00 0.00 0.00 0.00 0.00 0.00 0.00 0.00 0.00 0.00 0.00 0.00 0.00 0.00 0.00 0.00 0.00 0.00 0.00 0.00 0.00 0.00 0.00 0.00 0.00 0.00 0.00 0.00 0.00 0.00 0.00 0.00 0.00 0.00 0.00 0.00 0.00 0.00 0.00 0.00 0.00 0.00 0.00
0.00 0.00 0.00 0.00 0.00 0.00 0.00 0.00 0.00 0.00 0.00 0.00 0.00 0.00 0.00 0.00 0.00 0.00 0.00 0.00 0.00 0.00 0.00 0.00 0.00 0.00 0.00 0.00 0.00 0.00 0.00 0.00 0.00 0.00 0.00 0.00 0.00 0.00 0.00 0.00 0.00 0.00 0.00 0.00
0.00 0.00 0.00 0.00 0.00 0.00 0.00 0.00 0.00 0.00 0.00 0.00 0.00 0.00 0.00 0.00 0.00 0.00 0.00 0.00 0.00 0.00 0.00 0.00 0.00 0.00 0.00 0.00 0.00 0.00 0.00 0.00 0.00 0.00 0.00 0.00 0.00 0.00 0.00 0.00 0.00 0.00 0.00 0.00
0.00 0.00 0.00 0.00 0.00 0.00 0.00 0.00 0.00 0.00 0.00 0.00 0.00 0.00 0.00 0.00 0.00 0.00 0.00 0.00 0.00 0.00 0.00 0.00 0.00 0.00 0.00 0.00 0.00 0.00 0.00 0.00 0.00 0.00 0.00 0.00 0.00 0.00 0.00 0.00 0.00 0.00 0.00 0.00
0.00 0.00 0.00 0.00 0.00 0.00 0.00 0.00 0.00 0.00 0.00 0.00 0.00 0.00 0.00 0.00 0.00 0.00 0.00 0.00 0.00 0.00 0.00 0.00 0.00 0.00 0.00 0.00 0.00 0.00 0.00 0.00 0.00 0.00 0.00 0.00 0.00 0.00 0.00 0.00 0.00 0.00 0.00 0.00
0.00 0.00 0.00 0.00 0.00 0.00 0.00 0.00 0.00 0.00 0.00 0.00 0.00 0.00 0.00 0.00 0.00 0.00 0.00 0.00 0.00 0.00 0.00 0.00 0.00 0.00 0.00 0.00 0.00 0.00 0.00 0.00 0.00 0.00 0.00 0.00 0.00 0.00 0.00 0.00 0.00 0.00 0.00 0.00
0.00 0.00 0.00 0.00 0.00 0.00 0.00 0.00 0.00 0.00 0.00 0.00 0.00 0.00 0.00 0.00 0.00 0.00 0.00 0.00 0.00 0.00 0.00 0.00 0.00 0.00 0.00 0.00 0.00 0.00 0.00 0.00 0.00 0.00 0.00 0.00 0.00 0.00 0.00 0.00 0.00 0.00 0.00 0.00
0.00 0.00 0.00 0.00 0.00 0.00 0.00 0.00 0.00 0.00 0.00 0.00 0.00 0.00 0.00 0.00 0.00 0.00 0.00 0.00 0.00 0.00 0.00 0.00 0.00 0.00 0.00 0.00 0.00 0.00 0.00 0.00 0.00 0.00 0.00 0.00 0.00 0.00 0.00 0.00 0.00 0.00 0.00 0.00
0.00 0.00 0.00 0.00 0.00 0.00 0.00 0.00 0.00 0.00 0.00 0.00 0.00 0.00 0.00 0.00 0.00 0.00 0.00 0.00 0.00 0.00 0.00 0.00 0.00 0.00 0.00 0.00 0.00 0.00 0.00 0.00 0.00 0.00 0.00 0.00 0.00 0.00 0.00 0.00 0.00 0.00 0.00 0.00
0.00 0.00 0.00 0.00 0.00 0.00 0.00 0.00 0.00 0.00 0.00 0.00 0.00 0.00 0.00 0.00 0.00 0.00 0.00 0.00 0.00 0.00 0.00 0.00 0.00 0.00 0.00 0.00 0.00 0.00 0.00 0.00 0.00 0.00 0.00 0.00 0.00 0.00 0.00 0.00 0.00 0.00 0.00 0.00
0.00 0.00 0.00 0.00 0.00 0.00 0.00 0.00 0.00 0.00 0.00 0.00 0.00 0.00 0.00 0.00 0.00 0.00 0.00 0.00 0.00 0.00 0.00 0.00 0.00 0.00 0.00 0.00 0.00 0.00 0.00 0.00 0.00 0.00 0.00 0.00 0.00 0.00 0.00 0.00 0.00 0.00 0.00 0.00
MSLP
1011.80 1011.62 1012.08 1012.54 1012.44 1012.57 1012.83 1013.05 1013.22 1013.60 1014.02 1013.97 1014.33 1014.77 1015.62 1016.61 1017.24 1017.70 1018.12 1018.40 1018.44 1018.77 1019.12 1019.47 1019.61 1019.82 1019.97 1020.24 1020.42 1020.36 1020.18 1020.11 1020.23 1020.12 1019.74 1019.32 1019.06 1018.99 1018.79 1018.90 1018.73 1018.88 1018.52 1018.39
1012.16 1012.41 1013.18 1013.35 1013.25 1013.10 1013.17 1013.24 1013.45 1013.70 1014.01 1014.01 1014.43 1015.15 1015.90 1016.93 1017.49 1017.98 1018.23 1018.39 1018.56 1018.99 1019.20 1019.24 1019.42 1019.84 1020.14 1020.41 1020.46 1020.32 1020.10 1020.09 1020.32 1020.34 1020.33 1020.19 1019.87 1019.29 1019.03 1018.80 1018.63 1018.81 1018.53 1018.54
1012.40 1013.35 1013.73 1013.61 1013.51 1013.40 1013.66 1013.73 1013.97 1014.23 1014.47 1014.75 1014.96 1015.50 1016.42 1017.26 1017.86 1018.26 1018.46 1018.50 1018.73 1018.91 1018.99 1019.05 1019.34 1019.72 1020.07 1020.25 1020.29 1020.20 1020.07 1020.21 1020.36 1020.46 1020.19 1019.87 1019.36 1019.05 1018.60 1018.25 1018.14 1018.24 1018.44 1018.45
1013.14 1013.70 1013.71 1013.71 1013.82 1014.03 1014.00 1014.39 1014.64 1014.81 1015.01 1015.00 1015.82 1015.39 1016.42 1017.08 1017.42 1017.88 1018.02 1018.26 1018.43 1018.80 1018.98 1019.23 1019.48 1019.74 1020.01 1020.05 1020.19 1020.19 1020.22 1020.29 1020.22 1020.31 1020.03 1019.90 1019.61 1019.27 1019.02 1019.02 1018.70 1018.54 1018.24 1018.11
1013.63 1013.68 1013.81 1013.80 1014.24 1014.49 1014.74 1015.02 1015.33 1015.46 1015.43 1015.73 1016.00 1016.13 1016.30 1017.03 1017.06 1017.23 1017.58 1017.88 1018.20 1018.43 1018.77 1019.01 1019.36 1019.56 1019.76 1020.06 1020.36 1020.48 1020.48 1020.47 1020.48 1020.45 1020.36 1020.02 1019.82 1019.64 1019.45 1019.25 1018.90 1018.54 1017.98 1017.78
1013.76 1014.02 1014.00 1014.03 1014.57 1014.89 1015.20 1015.27 1015.79 1016.10 1015.97 1015.84 1016.56 1016.68 1015.94 1016.42 1016.68 1016.74 1017.19 1017.55 1017.84 1018.29 1018.85 1019.42 1019.62 1019.77 1019.92 1020.30 1020.51 1020.61 1020.64 1020.68 1020.70 1020.64 1020.53 1020.42 1020.22 1019.97 1019.56 1019.15 1018.81 1018.25 1017.91 1017.53
1014.06 1014.14 1014.24 1014.43 1014.61 1015.15 1015.16 1015.52 1015.56 1015.75 1015.83 1016.07 1016.96 1016.81 1016.18 1016.43 1016.61 1016.63 1016.81 1017.27 1017.96 1018.70 1019.23 1019.52 1019.69 1019.84 1020.17 1020.41 1020.63 1020.67 1020.78 1020.68 1020.73 1020.64 1020.51 1020.46 1020.37 1020.18 1019.72 1019.25 1018.71 1018.46 1017.81 1017.35
1014.35 1014.41 1014.46 1014.68 1014.84 1015.24 1015.99 1016.41 1016.56 1016.65 1016.71 1016.60 1016.99 1016.35 1016.04 1016.54 1016.99 1017.27 1017.33 1017.78 1018.62 1019.14 1019.51 1019.77 1020.05 1020.25 1020.37 1020.63 1020.81 1020.84 1020.84 1020.72 1020.71 1020.70 1020.65 1020.56 1020.34 1019.88 1019.45 1018.97 1018.80 1018.30 1017.80 1017.34
1015.00 1014.91 1015.00 1015.15 1015.37 1015.93 1016.43 1016.98 1017.77 1017.72 1018.29 1017.58 1016.65 1016.54 1016.27 1016.61 1016.99 1017.46 1017.88 1018.46 1018.98 1019.47 1019.87 1020.09 1020.31 1020.52 1020.66 1020.83 1020.92 1020.96 1020.93 1020.82 1020.70 1020.60 1020.40 1020.14 1019.84 1019.47 1019.05 1018.68 1018.31 1017.72 1017.30 1016.76
1015.53 1015.60 1015.67 1015.86 1015.97 1016.59 1016.68 1017.60 1018.04 1018.10 1017.88 1017.30 1016.54 1016.44 1015.89 1016.48 1016.77 1017.57 1018.18 1018.64 1019.15 1019.66 1019.95 1020.14 1020.38 1020.62 1020.83 1020.90 1020.93 1020.99 1020.78 1020.60 1020.48 1020.30 1019.97 1019.66 1019.42 1019.04 1018.69 1018.26 1017.76 1017.37 1016.91 1016.55
1016.09 1016.33 1016.31 1016.41 1016.60 1016.80 1017.41 1017.52 1018.36 1018.65 1018.61 1017.99 1017.03 1016.00 1016.39 1016.78 1017.20 1017.48 1018.06 1018.66 1019.12 1019.52 1019.81 1020.02 1020.30 1020.54 1020.71 1020.73 1020.63 1020.55 1020.42 1020.26 1020.05 1019.92 1019.67 1019.33 1018.95 1018.64 1018.25 1017.91 1017.52 1017.04 1016.57 1016.15
1017.21 1017.19 1016.94 1017.02 1017.38 1017.69 1017.71 1017.90 1018.29 1018.48 1018.75 1018.77 1018.33 1016.76 1016.84 1017.24 1017.51 1017.78 1018.22 1018.78 1019.19 1019.55 1019.76 1020.00 1020.21 1020.37 1020.43 1020.52 1020.46 1020.38 1020.31 1020.08 1019.78 1019.61 1019.25 1018.86 1018.55 1018.12 1017.65 1017.35 1016.86 1016.45 1016.00 1015.54
1017.41 1018.02 1017.81 1017.60 1017.94 1017.95 1017.81 1018.26 1018.77 1019.11 1019.13 1018.49 1018.00 1016.57 1017.03 1017.48 1017.80 1018.16 1018.46 1018.88 1019.20 1019.52 1019.59 1019.79 1020.01 1020.12 1020.24 1020.33 1020.38 1020.40 1020.21 1019.82 1019.58 1019.30 1018.97 1018.36 1017.93 1017.51 1017.17 1016.67 1016.04 1015.72 1015.19 1014.71
1017.62 1018.37 1018.06 1017.81 1017.74 1018.07 1018.01 1018.20 1018.52 1018.72 1018.73 1017.88 1017.31 1016.59 1016.58 1017.08 1017.47 1018.07 1018.48 1018.83 1018.98 1019.30 1019.52 1019.69 1019.85 1019.93 1020.08 1020.21 1020.31 1020.26 1020.00 1019.73 1019.37 1019.01 1018.61 1018.05 1017.54 1017.09 1016.56 1015.98 1015.52 1015.00 1014.47 1014.04
1018.12 1018.36 1018.58 1018.22 1018.30 1018.35 1018.09 1018.02 1018.14 1018.36 1018.15 1018.05 1016.96 1016.97 1016.44 1016.87 1017.25 1017.90 1018.35 1018.71 1018.96 1019.13 1019.41 1019.61 1019.76 1019.93 1020.01 1020.06 1020.17 1020.04 1019.78 1019.44 1019.11 1018.69 1018.35 1017.72 1017.26 1016.77 1016.05 1015.35 1014.81 1014.27 1013.67 1013.18
1018.68 1018.80 1018.86 1018.41 1018.41 1018.29 1017.94 1017.60 1017.72 1017.79 1017.82 1017.72 1017.43 1016.91 1016.77 1017.27 1017.63 1018.00 1018.31 1018.64 1018.87 1019.11 1019.46 1019.63 1019.83 1019.97 1020.08 1020.19 1020.16 1019.88 1019.51 1019.24 1018.99 1018.55 1018.00 1017.42 1016.86 1016.11 1015.37 1014.81 1014.20 1013.51 1012.81 1012.34
1018.47 1018.75 1019.03 1018.49 1018.58 1018.26 1017.60 1016.84 1016.98 1017.13 1017.23 1017.26 1016.91 1016.77 1017.18 1017.39 1017.71 1017.93 1018.14 1018.51 1018.85 1019.26 1019.59 1019.70 1019.95 1020.19 1020.37 1020.36 1020.17 1019.72 1019.43 1019.20 1018.82 1018.27 1017.74 1017.09 1016.32 1015.52 1014.88 1014.32 1013.62 1012.85 1012.10 1011.59
1018.63 1019.05 1019.33 1018.84 1018.69 1017.87 1016.94 1016.97 1017.03 1016.98 1016.75 1016.85 1016.81 1016.86 1017.19 1017.47 1017.76 1018.02 1018.19 1018.51 1018.94 1019.50 1019.74 1019.90 1020.15 1020.41 1020.47 1020.37 1020.06 1019.83 1019.41 1019.16 1018.75 1018.09 1017.40 1016.63 1015.79 1015.12 1014.45 1013.73 1012.95 1012.19 1011.48 1011.04
1018.63 1018.94 1019.24 1019.27 1018.57 1017.58 1016.61 1016.81 1016.88 1016.79 1016.30 1016.16 1016.42 1016.70 1017.22 1017.71 1018.06 1017.77 1018.21 1018.77 1019.21 1019.64 1020.00 1020.22 1020.52 1020.66 1020.54 1020.35 1020.13 1019.86 1019.34 1018.97 1018.61 1017.89 1017.20 1016.34 1015.58 1014.77 1013.94 1013.15 1012.34 1011.51 1010.89 1010.46
1019.05 1018.98 1018.82 1019.24 1018.41 1017.22 1016.39 1016.60 1016.85 1016.96 1016.21 1015.85 1016.35 1016.61 1017.14 1017.87 1017.81 1017.45 1018.35 1018.89 1019.36 1019.83 1020.19 1020.42 1020.57 1020.61 1020.41 1020.20 1020.05 1019.69 1019.20 1019.06 1018.39 1017.71 1016.99 1016.05 1015.33 1014.47 1013.56 1012.68 1011.79 1011.01 1010.40 1010.02
1018.63 1018.85 1018.56 1018.49 1017.93 1017.08 1016.29 1016.62 1017.01 1016.76 1016.20 1015.70 1016.09 1016.42 1017.05 1017.43 1017.40 1018.00 1018.59 1019.03 1019.46 1019.89 1020.29 1020.58 1020.56 1020.42 1020.39 1020.29 1020.04 1019.62 1019.49 1018.88 1018.19 1017.55 1016.75 1015.76 1014.97 1014.21 1013.18 1012.29 1011.43 1010.55 1010.04 1009.75
1017.16 1017.85 1018.07 1018.24 1017.66 1016.71 1016.02 1016.84 1016.56 1015.46 1015.55 1015.65 1015.99 1016.26 1016.61 1016.98 1017.60 1018.05 1018.47 1018.86 1019.42 1019.87 1020.25 1020.48 1020.42 1020.34 1020.34 1020.26 1020.03 1019.65 1019.27 1018.65 1018.16 1017.40 1016.57 1015.51 1014.64 1013.71 1012.80 1011.98 1011.07 1010.34 1009.95 1009.46
1016.66 1016.33 1016.59 1017.03 1016.09 1015.64 1015.75 1015.18 1015.20 1015.58 1015.54 1015.56 1015.76 1015.92 1016.37 1016.77 1017.27 1017.79 1018.27 1018.80 1019.30 1019.87 1020.29 1020.50 1020.46 1020.35 1020.25 1020.13 1019.93 1019.54 1018.96 1018.57 1017.96 1017.24 1016.37 1015.47 1014.44 1013.46 1012.59 1011.71 1010.97 1010.36 1009.95 1009.56
1016.06 1016.24 1016.05 1016.39 1015.12 1015.13 1015.17 1015.09 1015.20 1015.18 1015.17 1015.27 1015.53 1015.79 1016.22 1016.43 1016.98 1017.56 1018.20 1018.77 1019.29 1019.83 1020.20 1020.44 1020.44 1020.29 1020.09 1020.00 1019.91 1019.73 1019.20 1018.58 1017.89 1017.13 1016.27 1015.39 1014.42 1013.47 1012.51 1011.76 1011.08 1010.57 1010.15 1009.88
1015.98 1016.03 1015.59 1015.32 1014.80 1014.81 1014.49 1014.53 1014.35 1014.48 1014.85 1015.05 1015.29 1015.54 1015.84 1016.29 1016.79 1017.39 1018.05 1018.74 1019.29 1019.83 1020.16 1020.41 1020.48 1020.39 1020.19 1020.04 1019.89 1019.56 1019.04 1018.56 1017.90 1017.12 1016.25 1015.39 1014.52 1013.57 1012.71 1012.00 1011.27 1010.83 1010.58 1010.60
1015.69 1015.27 1015.06 1014.12 1013.77 1013.85 1013.57 1013.70 1013.97 1014.13 1014.14 1014.28 1014.96 1015.37 1015.79 1016.19 1016.58 1017.32 1017.99 1018.77 1019.30 1019.74 1020.04 1020.24 1020.43 1020.45 1020.33 1020.04 1019.76 1019.56 1019.21 1018.65 1017.94 1017.16 1016.26 1015.52 1014.67 1013.75 1013.07 1012.34 1011.47 1010.99 1011.01 1010.86
Thickness
5773 5768 5752 5751 5756 5752 5744 5737 5733 5737 5741 5738 5733 5731 5728 5724 5721 5715 5713 5710 5709 5705 5706 5703 5700 5695 5690 5684 5678 5676 5672 5668 5661 5656 5653 5651 5645 5640 5635 5627 5623 5615 5613 5609
5763 5747 5750 5750 5749 5746 5742 5735 5731 5738 5738 5738 5730 5718 5720 5715 5712 5709 5706 5704 5702 5698 5696 5697 5693 5686 5680 5673 5669 5666 5663 5657 5649 5643 5636 5629 5623 5620 5615 5611 5607 5599 5595 5591
5750 5746 5746 5745 5742 5740 5733 5729 5725 5723 5726 5724 5719 5710 5703 5705 5703 5701 5700 5700 5698 5694 5691 5690 5685 5679 5673 5666 5661 5657 5654 5646 5638 5629 5623 5616 5611 5608 5605 5603 5596 5587 5580 5575
5746 5747 5743 5740 5735 5735 5722 5732 5725 5718 5711 5705 5706 5700 5697 5696 5697 5695 5696 5695 5693 5689 5686 5682 5677 5671 5665 5660 5655 5650 5643 5635 5627 5617 5610 5601 5594 5587 5583 5576 5573 5570 5566 5563
5734 5738 5735 5734 5730 5731 5725 5724 5714 5708 5704 5700 5699 5694 5695 5689 5688 5691 5692 5691 5689 5687 5683 5678 5672 5666 5661 5653 5644 5636 5628 5619 5609 5601 5593 5587 5577 5569 5564 5559 5557 5555 5554 5549
5737 5744 5740 5736 5731 5726 5722 5718 5705 5699 5698 5689 5682 5682 5693 5689 5689 5690 5690 5689 5687 5684 5676 5666 5663 5659 5651 5642 5632 5623 5614 5606 5597 5588 5578 5569 5561 5556 5552 5550 5545 5544 5540 5537
5729 5730 5736 5736 5725 5723 5723 5709 5694 5690 5687 5682 5676 5673 5685 5689 5691 5692 5690 5687 5683 5673 5664 5660 5655 5649 5640 5631 5622 5614 5604 5595 5585 5576 5568 5559 5551 5545 5542 5538 5535 5529 5528 5525
5711 5704 5724 5731 5724 5714 5702 5700 5686 5663 5670 5679 5673 5672 5685 5689 5685 5681 5683 5680 5667 5661 5657 5651 5644 5637 5631 5622 5612 5602 5592 5583 5575 5565 5557 5549 5542 5537 5533 5530 5523 5519 5516 5512
5706 5707 5724 5722 5722 5714 5698 5693 5686 5670 5654 5661 5677 5678 5688 5684 5679 5674 5669 5663 5657 5652 5646 5641 5635 5629 5620 5610 5600 5590 5580 5571 5563 5556 5549 5542 5535 5530 5525 5520 5516 5514 5510 5505
5712 5700 5711 5712 5715 5705 5702 5692 5679 5672 5655 5655 5674 5666 5677 5676 5676 5668 5659 5655 5651 5644 5639 5634 5627 5618 5609 5600 5591 5580 5571 5561 5554 5548 5542 5536 5529 5524 5520 5517 5513 5508 5502 5496
5710 5703 5702 5704 5696 5693 5689 5686 5670 5670 5663 5656 5656 5674 5680 5673 5670 5666 5659 5653 5647 5640 5635 5629 5621 5612 5602 5594 5585 5575 5564 5556 5549 5541 5534 5529 5525 5520 5516 5511 5506 5500 5495 5489
5696 5692 5685 5689 5692 5689 5687 5680 5676 5666 5658 5648 5644 5663 5675 5667 5663 5658 5653 5647 5642 5636 5631 5624 5615 5606 5597 5587 5578 5567 5557 5550 5544 5536 5531 5526 5521 5517 5513 5506 5502 5496 5489 5483
5695 5675 5668 5675 5680 5682 5679 5673 5663 5656 5651 5652 5645 5663 5667 5660 5655 5652 5647 5642 5637 5631 5627 5619 5611 5602 5591 5581 5570 5558 5551 5546 5539 5532 5526 5523 5519 5515 5509 5505 5501 5493 5487 5481
5692 5670 5675 5667 5674 5675 5668 5667 5667 5661 5647 5660 5656 5663 5670 5662 5653 5649 5643 5638 5635 5628 5621 5614 5606 5598 5587 5575 5564 5555 5547 5540 5534 5527 5522 5519 5516 5512 5508 5504 5498 5492 5487 5480
5685 5674 5667 5671 5668 5666 5667 5666 5664 5654 5659 5646 5663 5654 5666 5662 5655 5648 5641 5635 5629 5623 5616 5610 5601 5592 5582 5571 5561 5553 5545 5537 5530 5524 5518 5517 5513 5508 5506 5502 5498 5493 5489 5484
5669 5665 5660 5665 5662 5663 5660 5668 5664 5660 5655 5650 5650 5651 5662 5653 5649 5642 5637 5631 5625 5619 5611 5604 5596 5586 5576 5565 5556 5550 5543 5535 5527 5521 5518 5514 5511 5508 5506 5501 5496 5493 5492 5488
5668 5660 5653 5657 5652 5654 5655 5670 5667 5664 5662 5656 5650 5660 5653 5648 5643 5638 5635 5629 5621 5613 5605 5600 5590 5579 5568 5558 5551 5547 5541 5532 5525 5521 5517 5513 5511 5510 5505 5500 5496 5494 5493 5490
5653 5649 5643 5647 5643 5638 5666 5666 5664 5660 5659 5657 5655 5653 5651 5647 5642 5637 5634 5625 5617 5608 5601 5594 5585 5574 5562 5552 5547 5541 5536 5528 5522 5519 5516 5513 5512 5507 5502 5498 5496 5495 5494 5491
5654 5646 5632 5632 5635 5649 5665 5657 5657 5653 5656 5661 5656 5653 5647 5641 5635 5636 5631 5621 5613 5604 5595 5587 5578 5568 5557 5549 5542 5537 5534 5528 5521 5517 5513 5511 5508 5503 5499 5497 5496 5495 5492 5488
5640 5641 5643 5620 5624 5630 5659 5658 5657 5654 5641 5663 5653 5650 5644 5633 5631 5638 5626 5617 5608 5599 5590 5582 5574 5564 5555 5546 5539 5535 5532 5523 5519 5516 5511 5510 5505 5500 5496 5494 5494 5491 5487 5483
5631 5628 5630 5624 5625 5638 5660 5654 5650 5631 5643 5659 5651 5649 5639 5633 5639 5628 5619 5611 5603 5594 5586 5578 5571 5562 5552 5542 5535 5532 5524 5521 5519 5514 5511 5509 5504 5498 5495 5492 5490 5487 5483 5479
5638 5622 5621 5612 5614 5619 5656 5642 5632 5657 5653 5652 5648 5645 5640 5637 5629 5623 5616 5608 5600 5591 5584 5576 5569 5561 5550 5541 5533 5527 5523 5522 5517 5513 5510 5508 5504 5499 5494 5492 5490 5488 5484 5484
5629 5644 5634 5628 5638 5649 5646 5654 5657 5650 5651 5648 5645 5644 5639 5634 5628 5622 5613 5605 5597 5588 5581 5573 5566 5558 5550 5541 5532 5525 5525 5521 5517 5513 5510 5508 5504 5501 5496 5495 5494 5491 5488 5487
5630 5630 5633 5623 5650 5642 5642 5648 5647 5648 5647 5647 5642 5640 5634 5632 5627 5619 5610 5601 5594 5586 5579 5571 5563 5556 5550 5541 5530 5522 5521 5519 5517 5514 5512 5511 5507 5503 5500 5498 5496 5493 5491 5488
5626 5622 5627 5626 5637 5636 5642 5643 5648 5648 5642 5640 5638 5636 5632 5628 5623 5616 5606 5598 5590 5582 5576 5568 5560 5554 5548 5539 5529 5522 5520 5519 5516 5514 5514 5513 5510 5507 5504 5502 5500 5496 5491 5484
5616 5621 5619 5627 5643 5638 5643 5644 5644 5640 5641 5641 5634 5629 5626 5624 5620 5611 5603 5594 5586 5580 5573 5567 5559 5551 5545 5537 5529 5521 5517 5517 5517 5516 5517 5515 5513 5511 5507 5505 5506 5500 5492 5488